#timestamp,LO_Frequency,Hit,StdDev 
1710057615.8,286047004.4,N
1710057635.6,286047006.7,N
1710057655.4,286047004.0,N
1710057675.3,286047002.7,N
1710057695.1,286047002.8,N
1710057715.9,286047006.0,N
1710057735.7,286047009.8,N
1710057755.5,286047015.2,N
1710057775.4,286047018.8,Y
1710057795.2,286047014.0,P
1710057815.1,286047015.4,P
1710057816.0,286047015.4,N
1710057835.8,286047017.1,Y
1710057855.6,286047005.6,P
1710057875.5,286047001.9,N
1710057895.3,286047001.8,N
1710057915.1,286047000.4,N
1710057935.9,286047001.9,N
1710057955.7,286047000.1,N
1710057975.6,286046999.3,N
1710057995.4,286046996.3,N
1710058015.2,286046997.8,N
1710058035.1,286046995.6,N
1710058036.0,286046995.6,N
1710058055.8,286046991.7,N
1710058075.7,286046991.9,N
1710058095.5,286046990.6,N
1710058115.3,286046990.1,N
1710058135.2,286046999.1,N
1710058155.9,286047004.3,N
1710058175.7,286047007.0,N
1710058195.6,286047008.2,N
1710058215.4,286047004.3,N
1710058235.2,286046998.1,N
1710058255.1,286046999.8,N
1710058256.0,286046999.8,N
1710058275.8,286047003.8,N
1710058295.7,286047007.7,N
1710058315.5,286047012.9,N
1710058335.3,286047003.0,N
1710058355.2,286046993.4,N
1710058375.0,286046993.3,N
1710058375.9,286046993.3,N
1710058395.8,286046991.6,N
1710058415.6,286046993.6,N
1710058435.4,286046987.8,N
1710058455.3,286046990.3,N
1710058475.1,286046996.4,N
1710058495.8,286046990.2,N
1710058515.7,286046991.1,N
1710058535.5,286046987.4,N
1710058555.4,286046988.3,N
1710058575.2,286046992.0,N
1710058595.0,286046990.0,N
1710058595.9,286046990.0,N
1710058615.8,286046988.3,N
1710058635.6,286046986.3,N
1710058655.4,286046986.2,N
1710058675.3,286046986.2,N
1710058695.1,286046986.0,N
1710058715.9,286046988.8,N
1710058735.7,286046986.7,N
1710058755.5,286046985.2,N
1710058775.4,286046981.6,N
1710058795.2,286046980.2,N
1710058815.0,286046982.8,N
1710058815.9,286046982.8,N
1710058835.8,286046983.3,N
1710058855.6,286046983.2,N
1710058875.5,286046978.4,Y
1710058895.3,286046994.6,P
1710058915.1,286046990.9,P
1710058935.9,286046988.1,P
1710058955.7,286046984.4,Y
1710058975.6,286046990.2,P
1710058995.4,286046981.2,P
1710059015.2,286046973.8,P
1710059035.1,286046979.1,Y
1710059036.0,286046979.1,P
1710059055.8,286046988.9,P
1710059075.6,286046986.0,P
1710059095.5,286046986.6,Y
1710059115.3,286047004.1,P
1710059135.2,286047005.6,N
1710059155.9,286047001.1,N
1710059175.7,286047000.0,N
1710059195.6,286047001.2,N
1710059215.4,286046998.3,N
1710059235.2,286047007.1,N
1710059255.1,286047010.0,N
1710059256.0,286047010.0,N
1710059275.8,286047016.7,N
1710059295.7,286047013.4,N
1710059315.5,286047004.0,N
1710059335.3,286047004.1,N
1710059355.2,286047003.0,N
1710059375.0,286046997.0,N
1710059375.9,286046997.0,N
1710059395.7,286046990.6,N
1710059415.6,286046993.9,N
1710059435.4,286046989.4,N
1710059455.3,286046988.8,N
1710059475.1,286046999.2,N
1710059476.0,286046999.2,N
1710059495.8,286047000.4,N
1710059515.7,286047004.5,N
1710059535.5,286047013.9,N
1710059555.3,286047007.8,N
1710059575.2,286047003.5,N
1710059595.0,286047006.1,N
1710059595.9,286047006.1,N
1710059615.8,286047003.9,N
1710059635.6,286046999.9,N
1710059655.4,286047002.1,N
1710059675.3,286047004.0,N
1710059695.1,286047000.1,N
1710059715.8,286047001.0,N
1710059735.7,286046990.5,N
1710059755.5,286046982.0,N
1710059775.4,286046977.8,N
1710059795.2,286046985.9,N
1710059815.0,286046979.5,N
1710059815.9,286046979.5,N
1710059835.8,286046978.2,N
1710059855.6,286046977.8,N
1710059875.5,286046985.8,N
1710059895.3,286046989.2,N
1710059915.1,286046985.6,N
1710059935.9,286046982.9,N
1710059955.7,286046980.4,N
1710059975.6,286046966.3,Y
1710059995.4,286046967.0,P
1710060015.2,286046967.0,N
1710060035.1,286046968.2,N
1710060036.0,286046968.2,N
1710060055.8,286046979.4,N
1710060075.6,286046994.0,N
1710060095.5,286046991.5,N
1710060115.3,286046994.7,N
1710060135.2,286046992.9,N
1710060155.9,286046987.9,N
1710060175.7,286046986.5,N
1710060195.6,286046989.2,N
1710060215.4,286046990.3,N
1710060235.3,286046994.3,N
1710060255.1,286046994.3,N
1710060256.0,286046994.3,N
1710060275.8,286046990.7,N
1710060295.7,286046991.1,N
1710060315.5,286046986.6,N
1710060335.3,286046989.0,N
1710060355.2,286046993.1,N
1710060375.0,286047002.8,N
1710060375.9,286047002.8,N
1710060395.8,286046995.7,N
1710060415.6,286046988.0,N
1710060435.4,286046986.7,N
1710060455.3,286046985.2,N
1710060475.1,286046977.2,N
1710060495.9,286046975.8,N
1710060515.7,286046972.9,N
1710060535.5,286046974.9,N
1710060555.4,286046972.2,N
1710060575.2,286046966.9,Y
1710060595.1,286046979.4,P
1710060596.0,286046979.4,P
1710060615.8,286046979.2,P
1710060635.6,286046985.1,Y
1710060655.5,286046997.3,P
1710060675.3,286046992.5,N
1710060695.1,286046983.4,N
1710060715.9,286046973.3,Y
1710060735.7,286046981.7,P
1710060755.6,286046980.2,P
1710060775.4,286046978.5,P
1710060795.2,286046974.0,Y
1710060815.1,286046993.4,P
1710060816.0,286046993.4,N
1710060835.8,286046993.9,N
1710060855.7,286046994.5,N
1710060875.5,286046997.2,N
1710060895.3,286046998.7,N
1710060915.2,286047002.2,N
1710060935.9,286047000.4,N
1710060955.7,286046996.5,N
1710060975.6,286046990.9,N
1710060995.4,286046989.2,N
1710061015.2,286046989.1,N
1710061035.1,286046986.6,N
1710061036.0,286046986.6,N
1710061055.8,286046985.0,N
1710061075.7,286046985.8,N
1710061095.5,286046984.5,N
1710061115.4,286046985.1,N
1710061135.2,286046980.0,Y
1710061155.0,286046980.5,P
1710061156.0,286046980.5,P
1710061175.8,286046975.9,P
1710061195.7,286046978.2,Y
